This is the latest recevied weather packets stored in our database for station/object ED5YAW-10. If no packets are shown the sender has not sent any weather packets the latest 10 day(s).
| Time | Temp. | Humidity | Pressure | Rain* | Wind** | Luminosity | Snow |
|---|---|---|---|---|---|---|---|
| 1777830101 | 20.56° C | 52% | 874 hPa | - | - | - | - |
| 1777829497 | 20.56° C | 49% | 874 hPa | - | - | - | - |
| 1777829492 | 20.56° C | 49% | 874 hPa | - | - | - | - |
| 1777828946 | 21.11° C | 47% | 874 hPa | - | - | - | - |
| 1777828892 | 21.11° C | 47% | 874 hPa | - | - | - | - |
| 1777828888 | 21.11° C | 47% | 874 hPa | - | - | - | - |
| 1777828288 | 22.22° C | 47% | 874 hPa | - | - | - | - |
| 1777828284 | 22.22° C | 47% | 874 hPa | - | - | - | - |
| 1777827683 | 22.78° C | 47% | 874 hPa | - | - | - | - |
| 1777827679 | 22.78° C | 47% | 874 hPa | - | - | - | - |
| 1777827079 | 22.22° C | 45% | 874 hPa | - | - | - | - |
| 1777827075 | 22.22° C | 45% | 874 hPa | - | - | - | - |
| 1777826475 | 23.33° C | 46% | 874 hPa | - | - | - | - |
| 1777826471 | 23.33° C | 46% | 874 hPa | - | - | - | - |
| 1777825871 | 22.78° C | 54% | 874 hPa | - | - | - | - |
| 1777825867 | 22.78° C | 54% | 874 hPa | - | - | - | - |
| 1777825385 | 21.67° C | 59% | 874 hPa | - | - | - | - |
| 1777825274 | 21.67° C | 59% | 874 hPa | - | - | - | - |
| 1777825262 | 21.67° C | 59% | 874 hPa | - | - | - | - |
| 1777825100 | 21.67° C | 60% | 874 hPa | - | - | - | - |
| 1777824662 | 21.67° C | 60% | 874 hPa | - | - | - | - |
| 1777824658 | 21.67° C | 60% | 874 hPa | - | - | - | - |
| 1777824058 | 21.67° C | 61% | 874 hPa | - | - | - | - |
| 1777824054 | 21.67° C | 61% | 874 hPa | - | - | - | - |
| 1777823454 | 21.67° C | 58% | 874 hPa | - | - | - | - |
* Rain since midnight (hover to see other rain measurements)
** Current wind speed in m/s (hover to see current wind gust speed)